Regional Weather Roundup
Issued by NWS

Home | Current Version | Previous Version | Graphics & Text | Print | Product List | Glossary On
Versions: 1 2 3 4 5 6 7 8 9 10 11 12 13 14 15 16 17 18 19 20 21 22 23 24 25 26 27 28 29 30 31 32 33 34 35 36 37 38 39 40 41 42 43 44 45 46 47 48 49 50
000
ASUS45 KBOI 210410
RWRID
WEATHER ROUNDUP FOR IDAHO
NATIONAL WEATHER SERVICE BOISE ID
1000 PM MDT WED AUG 20 2014

NOTE: "FAIR" INDICATES FEW OR NO CLOUDS BELOW 12000 FEET
WITH NO SIGNIFICANT WEATHER AND/OR OBSTRUCTIONS TO VISIBILITY

IDZ012-014-210500-
SOUTHWEST IDAHO


CITY           SKY/WX    TMP DP  RH WIND       PRES   REMARKS
BOISE          CLOUDY    77  49  37 W12       29.82R
CALDWELL       CLOUDY    73  48  40 NW6       29.82R
MOUNTAIN HOME  CLOUDY    74  53  47 SE7       29.83R
$$

IDZ016-017-210500-
SOUTHCENTRAL IDAHO


CITY           SKY/WX    TMP DP  RH WIND       PRES   REMARKS
BURLEY         CLOUDY    63  53  70 S6        29.90S
JEROME         RAIN      66  57  72 SE10      29.91R
TWIN FALLS     CLOUDY    71  51  49 SW13      29.94R
$$

IDZ019>023-210500-
SOUTHEAST IDAHO


CITY           SKY/WX    TMP DP  RH WIND       PRES   REMARKS
IDAHO FALLS    CLOUDY    59  54  83 NE12      30.02R
POCATELLO      PTCLDY    63  52  67 NW8       29.96R
REXBURG        LGT RAIN  56  51  84 E6        30.05F
$$

IDZ006-010-011-018-031-032-210500-
CENTRAL IDAHO MOUNTAINS


CITY           SKY/WX    TMP DP  RH WIND       PRES   REMARKS
MCCALL         LGT RAIN  61  47  59 NE14      29.97R
HAILEY         PTCLDY    64  46  52 NW5       29.98R
STANLEY          N/A     54  44  69 CALM      30.05R
SALMON         CLOUDY    59  54  82 CALM      29.97R
CHALLIS        CLOUDY    59  51  75 W6        29.99R
$$

IDZ002-004-006-007-026-210500-
NORTHERN IDAHO


CITY           SKY/WX    TMP DP  RH WIND       PRES   REMARKS
LEWISTON       PTCLDY    75  43  31 SW6       29.83R
LOWELL           N/A     68  60  75 N3        29.83R
COEUR D`ALENE  CLOUDY    63  54  72 NE13      29.88R
MULLAN PASS    CLEAR     52  45  77 CALM      30.02R
$$



USA.gov is the U.S. government's official web portal to all federal, state and local government web resources and services.